Location: Miles
(41.4492°N, 81.6087°W)
Time: 07:10:35
(UTC+00:00)

Transit 2A - Pass Details

Date: 16 September 2024
Orbit: 590 x 960 km, 66.7° (Epoch: 09 October)

Event Time Altitude Azimuth Distance (km) Brightness Sun altitude
Rises 09:21:40 0° 324° (NW) 3,621 9.4 -20.2°
Reaches altitude 10° 09:24:23 10° 318° (NW) 2,645 8.6 -19.7°
Maximum altitude 09:30:12 44° 249° (WSW) 1,203 6.5 -18.7°
Drops below altitude 10° 09:35:33 10° 178° (S) 2,434 8.4 -17.8°
Sets 09:37:59 0° 172° (S) 3,306 9.2 -17.4°
